This is the latest recevied weather packets stored in our database for station/object F5ZZA-10. If no packets are shown the sender has not sent any weather packets the latest 10 day(s).
| Time | Temp. | Humidity | Pressure | Rain* | Wind** | Luminosity | Snow |
|---|---|---|---|---|---|---|---|
| 1777744915 | 23.89° C | 52% | 1014.5 hPa | - | - | - | - |
| 1777744014 | 23.89° C | 52% | 1014.7 hPa | - | - | - | - |
| 1777743113 | 23.89° C | 52% | 1014.7 hPa | - | - | - | - |
| 1777742212 | 23.89° C | 53% | 1014.9 hPa | - | - | - | - |
| 1777741311 | 23.89° C | 53% | 1015.1 hPa | - | - | - | - |
| 1777740411 | 23.89° C | 53% | 1015.3 hPa | - | - | - | - |
| 1777739510 | 23.89° C | 53% | 1015.3 hPa | - | - | - | - |
| 1777738609 | 23.89° C | 53% | 1015.4 hPa | - | - | - | - |
| 1777737708 | 23.89° C | 53% | 1015.9 hPa | - | - | - | - |
| 1777736808 | 23.89° C | 54% | 1016.2 hPa | - | - | - | - |
| 1777735907 | 23.89° C | 54% | 1016 hPa | - | - | - | - |
| 1777735006 | 23.89° C | 54% | 1016.5 hPa | - | - | - | - |
| 1777734105 | 23.89° C | 55% | 1016.7 hPa | - | - | - | - |
| 1777733204 | 23.89° C | 55% | 1017 hPa | - | - | - | - |
| 1777732304 | 24.44° C | 55% | 1017.3 hPa | - | - | - | - |
| 1777731403 | 24.44° C | 53% | 1017.6 hPa | - | - | - | - |
| 1777730502 | 23.89° C | 55% | 1018.1 hPa | - | - | - | - |
| 1777729601 | 24.44° C | 49% | 1018.1 hPa | - | - | - | - |
| 1777728700 | 23.89° C | 48% | 1018.1 hPa | - | - | - | - |
| 1777727799 | 23.89° C | 48% | 1018.2 hPa | - | - | - | - |
| 1777726898 | 23.89° C | 48% | 1018.2 hPa | - | - | - | - |
| 1777725998 | 23.89° C | 47% | 1018.2 hPa | - | - | - | - |
| 1777725097 | 23.89° C | 47% | 1018.3 hPa | - | - | - | - |
| 1777724196 | 23.89° C | 47% | 1018.1 hPa | - | - | - | - |
| 1777723295 | 23.89° C | 47% | 1017.9 hPa | - | - | - | - |
* Rain since midnight (hover to see other rain measurements)
** Current wind speed in m/s (hover to see current wind gust speed)